Overview Statistics Trail Chart Weather Telemetry Raw packets
 

This is the latest recevied weather packets stored in our database for station/object IZ5RIE-13. If no packets are shown the sender has not sent any weather packets the latest 10 day(s).

<< 7 8 9 10 11 12 13 >>
Time Temp. Humidity Pressure Rain* Wind** Luminosity Snow
1788561094 25° C 100% 1020.2 hPa - - - -
1788560193 25° C 100% 1020.1 hPa - - - -
1788559293 25.56° C 100% 1020.3 hPa - - - -
1788558393 25.56° C 100% 1020.2 hPa - - - -
1788557493 26.11° C 100% 1020.2 hPa - - - -
1788556626 26.11° C 100% 1020.3 hPa - - - -
1788555693 26.11° C 100% 1020.4 hPa - - - -
1788554792 26.11° C 100% 1020.4 hPa - - - -
1788553892 26.67° C 100% 1020.6 hPa - - - -
1788552991 26.67° C 100% 1020.6 hPa - - - -
1788552091 26.67° C 100% 1020.5 hPa - - - -
1788551191 26.67° C 100% 1020.6 hPa - - - -
1788550295 26.67° C 100% 1020.5 hPa - - - -
1788549394 26.67° C 100% 1020.3 hPa - - - -
1788548494 26.67° C 100% 1020.3 hPa - - - -
1788547594 27.22° C 100% 1020.1 hPa - - - -
1788546694 27.22° C 100% 1020 hPa - - - -
1788545794 27.78° C 100% 1019.8 hPa - - - -
1788544894 27.78° C 100% 1019.6 hPa - - - -
1788543993 28.89° C 100% 1019.5 hPa - - - -
1788543093 29.44° C 100% 1019.5 hPa - - - -
1788542193 31.67° C 100% 1019.7 hPa - - - -
1788541293 34.44° C 96% 1019.7 hPa - - - -
1788540393 35° C 85% 1019.7 hPa - - - -
1788539493 35.56° C 87% 1019.8 hPa - - - -

* Rain since midnight (hover to see other rain measurements)
** Current wind speed in m/s (hover to see current wind gust speed)